H1 CPF 1 NER 2022 3 1 9 5601 glonass141 H2 1908801 9141 44850 2022 3 1 0 0 0 2022 3 4 23 45 0 900 1 1 0 0 0 H9 10 0 59639 0.00000 0 -11440537.744 16181296.958 16084621.444 10 0 59639 900.00000 0 -12879236.818 17317037.687 13620166.937 10 0 59639 1800.00000 0 -13980139.728 18357838.959 10891511.262 10 0 59639 2700.00000 0 -14742916.685 19243370.460 7951484.852 10 0 59639 3600.00000 0 -15180058.089 19916428.531 4857070.513 10 0 59639 4500.00000 0 -15316121.741 20325446.740 1668305.484 10 0 59639 5400.00000 0 -15186481.166 20426791.877 -1552880.741 10 0 59639 6300.00000 0 -14835627.332 20186747.387 -4743870.424 10 0 59639 7200.00000 0 -14315095.176 19583098.951 -7842579.660 10 0 59639 8100.00000 0 -13681102.624 18606253.315 -10788674.102 10 0 59639 9000.00000 0 -12992002.350 17259841.023 -13524753.727 10 0 59639 9900.00000 0 -12305654.780 15560775.550 -15997482.355 10 0 59639 10800.00000 0 -11676834.533 13538764.355 -18158638.788 10 0 59639 11700.00000 0 -11154781.212 11235290.761 -19966067.989 10 0 59639 12600.00000 0 -10780999.350 8702108.210 -21384512.739 10 0 59639 13500.00000 0 -10587401.749 5999309.132 -22386308.865 10 0 59639 14400.00000 0 -10594875.668 3193048.828 -22951929.976 10 0 59639 15300.00000 0 -10812333.210 353019.437 -23070370.798 10 0 59639 16200.00000 0 -11236286.490 -2450220.471 -22739361.587 10 0 59639 17100.00000 0 -11850965.688 -5147949.131 -21965409.561 10 0 59639 18000.00000 0 -12628974.873 -7675904.720 -20763666.805 10 0 59639 18900.00000 0 -13532457.549 -9976719.139 -19157627.574 10 0 59639 19800.00000 0 -14514722.127 -12002061.293 -17178661.390 10 0 59639 20700.00000 0 -15522257.980 -13714401.075 -14865391.558 10 0 59639 21600.00000 0 -16497056.152 -15088321.526 -12262931.893 10 0 59639 22500.00000 0 -17379135.932 -16111325.854 -9421997.175 10 0 59639 23400.00000 0 -18109169.850 -16784107.342 -6397905.547 10 0 59639 24300.00000 0 -18631095.683 -17120273.035 -3249493.056 10 0 59639 25200.00000 0 -18894604.778 -17145535.152 -37962.272 10 0 59639 26100.00000 0 -18857401.547 -16896406.491 3174311.807 10 0 59639 27000.00000 0 -18487138.935 -16418456.944 6324994.766 10 0 59639 27900.00000 0 -17762948.577 -15764206.360 9353000.837 10 0 59639 28800.00000 0 -16676501.768 -14990743.926 12199672.402 10 0 59639 29700.00000 0 -15232557.132 -14157175.228 14809908.383 10 0 59639 30600.00000 0 -13448972.480 -13322004.780 17133220.356 10 0 59639 31500.00000 0 -11356180.655 -12540563.915 19124696.824 10 0 59639 32400.00000 0 -8996151.252 -11862591.517 20745858.291 10 0 59639 33300.00000 0 -6420881.049 -11330068.149 21965388.044 10 0 59639 34200.00000 0 -3690475.257 -10975393.334 22759725.869 10 0 59639 35100.00000 0 -870897.995 -10819981.230 23113514.597 10 0 59639 36000.00000 0 1968516.300 -10873332.626 23019891.872 10 0 59639 36900.00000 0 4757689.177 -11132621.540 22480622.161 10 0 59639 37800.00000 0 7428455.446 -11582813.627 21506066.656 10 0 59639 38700.00000 0 9917143.349 -12197311.808 20114991.297 10 0 59639 39600.00000 0 12166972.413 -12939102.933 18334215.869 10 0 59639 40500.00000 0 14130171.018 -13762358.611 16198109.753 10 0 59639 41400.00000 0 15769726.818 -14614424.446 13747942.557 10 0 59639 42300.00000 0 17060697.682 -15438115.518 11031100.660 10 0 59639 43200.00000 0 17991028.721 -16174222.811 8100183.227 10 0 59639 44100.00000 0 18561841.029 -16764125.896 5011993.810 10 0 59639 45000.00000 0 18787179.536 -17152402.062 1826446.108 10 0 59639 45900.00000 0 18693229.955 -17289321.558 -1394595.564 10 0 59639 46800.00000 0 18317037.171 -17133122.697 -4588518.769 10 0 59639 47700.00000 0 17704778.589 -16651969.328 -7693184.691 10 0 59639 48600.00000 0 16909665.106 -15825506.089 -10648144.756 10 0 59639 49500.00000 0 15989558.445 -14645943.631 -13395827.505 10 0 59639 50400.00000 0 15004405.998 -13118625.754 -15882671.408 10 0 59639 51300.00000 0 14013602.316 -11262052.368 -18060180.413 10 0 59639 52200.00000 0 13073389.720 -9107355.280 -19885880.550 10 0 59639 53100.00000 0 12234408.916 -6697247.289 -21324157.903 10 0 59639 54000.00000 0 11539504.094 -4084487.374 -22346960.928 10 0 59639 54900.00000 0 11021876.049 -1329925.468 -22934352.887 10 0 59639 55800.00000 0 10703661.939 1499791.799 -23074903.312 10 0 59639 56700.00000 0 10595001.911 4334758.703 -22765910.853 10 0 59639 57600.00000 0 10693631.990 7104485.429 -22013453.237 10 0 59639 58500.00000 0 10985020.073 9740598.718 -20832263.628 10 0 59639 59400.00000 0 11443038.651 12179455.474 -19245436.166 10 0 59639 60300.00000 0 12031145.035 14364560.518 -17283966.884 10 0 59639 61200.00000 0 12704018.199 16248687.864 -14986139.497 10 0 59639 62100.00000 0 13409581.995 17795617.775 -12396768.693 10 0 59639 63000.00000 0 14091328.149 18981418.104 -9566316.359 10 0 59639 63900.00000 0 14690839.790 19795217.763 -6549898.794 10 0 59639 64800.00000 0 15150407.969 20239441.833 -3406205.067 10 0 59639 65700.00000 0 15415629.874 20329500.510 -196348.368 10 0 59639 66600.00000 0 15437878.557 20092947.156 3017326.491 10 0 59639 67500.00000 0 15176539.677 19568143.027 6172455.666 10 0 59639 68400.00000 0 14600921.003 18802486.756 9207865.061 10 0 59639 69300.00000 0 13691754.477 17850284.686 12064751.712 10 0 59639 70200.00000 0 12442228.009 16770352.759 14687815.140 10 0 59639 71100.00000 0 10858504.022 15623451.322 17026317.456 10 0 59639 72000.00000 0 8959703.286 14469660.680 19035052.543 10 0 59639 72900.00000 0 6777354.701 13365807.036 20675206.871 10 0 59639 73800.00000 0 4354333.606 12363045.804 21915096.706 10 0 59639 74700.00000 0 1743332.185 11504702.361 22730768.826 10 0 59639 75600.00000 0 -995075.658 10824459.259 23106454.511 10 0 59639 76500.00000 0 -3794696.175 10344964.472 23034869.081 10 0 59639 77400.00000 0 -6586212.366 10076917.842 22517351.840 10 0 59639 78300.00000 0 -9299813.891 10018673.269 21563843.979 10 0 59639 79200.00000 0 -11867853.387 10156373.055 20192704.531 10 0 59639 80100.00000 0 -14227420.905 10464609.077 18430367.195 10 0 59639 81000.00000 0 -16322731.315 10907583.733 16310843.482 10 0 59639 81900.00000 0 -18107226.737 11440723.009 13875080.286 10 0 59639 82800.00000 0 -19545307.193 12012675.036 11170182.763 10 0 59639 83700.00000 0 -20613617.596 12567611.198 8248515.959 10 0 59639 84600.00000 0 -21301837.156 13047733.759 5166701.159 10 0 59639 85500.00000 0 -21612937.537 13395884.727 1984525.427 10 0 59640 0.00000 0 -21562898.245 13558145.775 -1236214.928 10 0 59640 900.00000 0 -21179890.290 13486318.790 -4432916.448 10 0 59640 1800.00000 0 -20502961.871 13140180.852 -7543388.159 10 0 59640 2700.00000 0 -19580280.896 12489416.883 -10507070.211 10 0 59640 3600.00000 0 -18467008.224 11515145.990 -13266222.514 10 0 59640 4500.00000 0 -17222891.577 10210974.879 -15767060.780 10 0 59640 5400.00000 0 -15909682.122 8583531.581 -17960816.419 10 0 59640 6300.00000 0 -14588483.461 6652454.748 -19804698.497 10 0 59640 7200.00000 0 -13317145.762 4449837.125 -21262738.003 10 0 59640 8100.00000 0 -12147815.840 2019144.957 -22306497.220 10 0 59640 9000.00000 0 -11124747.212 -586342.562 -22915629.842 10 0 59640 9900.00000 0 -10282463.036 -3305509.117 -23078280.589 10 0 59640 10800.00000 0 -9644349.564 -6071710.213 -22791316.495 10 0 59640 11700.00000 0 -9221739.252 -8815318.904 -22060385.399 10 0 59640 12600.00000 0 -9013521.733 -11466401.885 -20899800.795 10 0 59640 13500.00000 0 -9006298.207 -13957414.224 -19332255.620 10 0 59640 14400.00000 0 -9175071.637 -16225800.220 -17388371.023 10 0 59640 15300.00000 0 -9484442.323 -18216391.896 -15106089.469 10 0 59640 16200.00000 0 -9890256.937 -19883505.351 -12529924.656 10 0 59640 17100.00000 0 -10341639.877 -21192648.136 -9710083.543 10 0 59640 18000.00000 0 -10783319.685 -22121767.200 -6701478.438 10 0 59640 18900.00000 0 -11158150.921 -22661986.682 -3562649.198 10 0 59640 19800.00000 0 -11409723.779 -22817806.337 -354617.312 10 0 59640 20700.00000 0 -11484950.394 -22606754.211 2860304.992 10 0 59640 21600.00000 0 -11336518.059 -22058510.209 6019726.917 10 0 59640 22500.00000 0 -10925105.566 -21213539.269 9062388.606 10 0 59640 23400.00000 0 -10221269.299 -20121293.281 11929344.367 10 0 59640 24300.00000 0 -9206919.858 -18838058.560 14565096.963 10 0 59640 25200.00000 0 -7876327.430 -17424540.061 16918661.622 10 0 59640 26100.00000 0 -6236613.972 -15943283.911 18944540.068 10 0 59640 27000.00000 0 -4307711.667 -14456046.010 20603586.984 10 0 59640 27900.00000 0 -2121789.076 -13021216.017 21863753.578 10 0 59640 28800.00000 0 277831.620 -11691403.330 22700695.255 10 0 59640 29700.00000 0 2838222.292 -10511284.479 23098233.023 10 0 59640 30600.00000 0 5498798.617 -9515800.331 23048660.767 10 0 59640 31500.00000 0 8193592.657 -8728777.013 22552893.148 10 0 59640 32400.00000 0 10853756.068 -8162026.986 21620451.515 10 0 59640 33300.00000 0 13410192.205 -7814967.077 20269287.803 10 0 59640 34200.00000 0 15796209.889 -7674769.190 18525449.087 10 0 59640 35100.00000 0 17950090.435 -7717037.484 16422588.123 10 0 59640 36000.00000 0 19817462.653 -7906984.250 14001327.843 10 0 59640 36900.00000 0 21353387.768 -8201055.888 11308490.544 10 0 59640 37800.00000 0 22524067.731 -8548941.559 8396205.122 10 0 59640 38700.00000 0 23308105.422 -8895880.725 5320908.173 10 0 59640 39600.00000 0 23697263.366 -9185172.816 2142257.340 10 0 59640 40500.00000 0 23696688.320 -9360783.217 -1078022.721 10 0 59640 41400.00000 0 23324591.271 -9369934.999 -4277339.631 10 0 59640 42300.00000 0 22611395.254 -9165575.933 -7393454.175 10 0 59640 43200.00000 0 21598386.070 -8708614.935 -10365698.511 10 0 59640 44100.00000 0 20335922.145 -7969831.500 -13136167.060 10 0 59640 45000.00000 0 18881278.770 -6931375.246 -15650855.698 10 0 59640 45900.00000 0 17296217.744 -5587789.932 -17860725.951 10 0 59640 46800.00000 0 15644385.226 -3946516.440 -19722672.289 10 0 59640 47700.00000 0 13988648.146 -2027851.453 -21200372.662 10 0 59640 48600.00000 0 12388482.056 135638.247 -22265004.909 10 0 59640 49500.00000 0 10897521.046 2500222.772 -22895814.558 10 0 59640 50400.00000 0 9561373.396 5012591.957 -23080522.579 10 0 59640 51300.00000 0 8415795.043 7611848.422 -22815565.088 10 0 59640 52200.00000 0 7485297.576 10231827.859 -22106160.383 10 0 59640 53100.00000 0 6782248.809 12803649.480 -20966202.276 10 0 59640 54000.00000 0 6306502.891 15258390.037 -19417982.127 10 0 59640 54900.00000 0 6045574.227 17529769.564 -17491745.469 10 0 59640 55800.00000 0 5975346.402 19556736.452 -15225092.420 10 0 59640 56700.00000 0 6061284.465 21285843.957 -12662234.214 10 0 59640 57600.00000 0 6260097.605 22673319.095 -9853121.028 10 0 59640 58500.00000 0 6521780.237 23686737.966 -6852458.948 10 0 59640 59400.00000 0 6791943.579 24306238.388 -3718636.043 10 0 59640 60300.00000 0 7014337.722 24525220.373 -512579.230 10 0 59640 61200.00000 0 7133456.433 24350506.642 2703434.961 10 0 59640 62100.00000 0 7097113.778 23801958.253 5866992.021 10 0 59640 63000.00000 0 6858883.243 22911563.257 8916749.637 10 0 59640 63900.00000 0 6380296.286 21722038.283 11793622.662 10 0 59640 64800.00000 0 5632707.734 20285003.109 14441920.262 10 0 59640 65700.00000 0 4598749.741 18658805.685 16810413.799 10 0 59640 66600.00000 0 3273313.522 16906089.176 18853315.638 10 0 59640 67500.00000 0 1664017.837 15091202.755 20531151.241 10 0 59640 68400.00000 0 -208855.506 13277563.685 21811509.041 10 0 59640 69300.00000 0 -2312956.813 11525079.820 22669655.020 10 0 59640 70200.00000 0 -4604970.406 9887738.585 23089001.471 10 0 59640 71100.00000 0 -7032178.688 8411461.324 23061421.968 10 0 59640 72000.00000 0 -9534424.941 7132310.861 22587407.151 10 0 59640 72900.00000 0 -12046395.281 6075125.484 21676058.594 10 0 59640 73800.00000 0 -14500127.143 5252635.147 20344920.613 10 0 59640 74700.00000 0 -16827642.057 4665096.011 18619652.552 10 0 59640 75600.00000 0 -18963595.286 4300458.278 16533546.731 10 0 59640 76500.00000 0 -20847833.589 4135060.352 14126899.915 10 0 59640 77400.00000 0 -22427755.606 4134820.697 11446248.916 10 0 59640 78300.00000 0 -23660376.899 4256877.946 8543483.503 10 0 59640 79200.00000 0 -24514013.340 4451610.946 5474852.383 10 0 59640 80100.00000 0 -24969511.761 4664954.135 2299880.459 10 0 59640 81000.00000 0 -25020975.344 4840910.773 -919782.352 10 0 59640 81900.00000 0 -24675952.080 4924157.644 -4121558.672 10 0 59640 82800.00000 0 -23955077.086 4862630.384 -7243164.041 10 0 59640 83700.00000 0 -22891182.634 4609978.886 -10223825.798 10 0 59640 84600.00000 0 -21527912.404 4127787.236 -13005475.892 10 0 59640 85500.00000 0 -19917897.703 3387462.310 -15533893.165 10 0 59641 0.00000 0 -18120572.335 2371709.119 -17759771.578 10 0 59641 900.00000 0 -16199717.230 1075527.729 -19639693.540 10 0 59641 1800.00000 0 -14220840.963 -493310.985 -21136985.432 10 0 59641 2700.00000 0 -12248503.668 -2314334.586 -22222441.854 10 0 59641 3600.00000 0 -10343699.743 -4354980.728 -22874900.860 10 0 59641 4500.00000 0 -8561408.877 -6571727.257 -23081659.858 10 0 59641 5400.00000 0 -6948418.636 -8911694.138 -22838723.765 10 0 59641 6300.00000 0 -5541509.924 -11314650.622 -22150880.639 10 0 59641 7200.00000 0 -4366081.084 -13715343.693 -21031603.534 10 0 59641 8100.00000 0 -3435267.567 -16046050.333 -19502780.849 10 0 59641 9000.00000 0 -2749592.816 -18239246.648 -17594280.860 10 0 59641 9900.00000 0 -2297163.521 -20230281.868 -15343359.499 10 0 59641 10800.00000 0 -2054399.069 -21959945.209 -12793923.556 10 0 59641 11700.00000 0 -1987262.425 -23376818.186 -9995664.357 10 0 59641 12600.00000 0 -2052938.444 -24439314.043 -7003079.647 10 0 59641 13500.00000 0 -2201886.747 -25117319.508 -3874403.555 10 0 59641 14400.00000 0 -2380180.613 -25393370.911 -670466.263 10 0 59641 15300.00000 0 -2532031.547 -25263316.548 2546493.572 10 0 59641 16200.00000 0 -2602391.650 -24736438.958 5714039.956 10 0 59641 17100.00000 0 -2539523.042 -23835033.518 8770750.368 10 0 59641 18000.00000 0 -2297425.506 -22593462.566 11657402.505 10 0 59641 18900.00000 0 -1838019.869 -21056726.042 14318114.247 10 0 59641 19800.00000 0 -1132995.334 -19278609.518 16701415.369 10 0 59641 20700.00000 0 -165243.399 -17319487.712 18761231.071 10 0 59641 21600.00000 0 1070181.573 -15243875.330 20457759.625 10 0 59641 22500.00000 0 2565615.274 -13117826.982 21758228.499 10 0 59641 23400.00000 0 4300868.734 -11006293.654 22637515.796 10 0 59641 24300.00000 0 6243842.960 -8970544.434 23078626.331 10 0 59641 25200.00000 0 8351648.368 -7065759.161 23073014.268 10 0 59641 26100.00000 0 10572183.743 -5338890.416 22620746.801 10 0 59641 27000.00000 0 12846110.837 -3826882.090 21730505.977 10 0 59641 27900.00000 0 15109144.496 -2555317.184 20419428.433 10 0 59641 28800.00000 0 17294565.072 -1537550.051 18712785.398 10 0 59641 29700.00000 0 19335850.551 -774358.523 16643508.065 10 0 59641 30600.00000 0 21169320.454 -254130.127 14251566.022 10 0 59641 31500.00000 0 22736682.436 46425.281 11583209.227 10 0 59641 32400.00000 0 23987375.962 161066.033 8690086.614 10 0 59641 33300.00000 0 24880615.171 132362.632 5628256.923 10 0 59641 34200.00000 0 25387044.814 9664.402 2457109.888 10 0 59641 35100.00000 0 25489938.931 -153225.682 -761782.038 10 0 59641 36000.00000 0 25185890.564 -300569.819 -3965859.437 10 0 59641 36900.00000 0 24484962.041 -377300.899 -7092795.675 10 0 59641 37800.00000 0 23410288.000 -331603.591 -10081716.367 10 0 59641 38700.00000 0 21997146.504 -117360.393 -12874393.989 10 0 59641 39600.00000 0 20291536.299 303642.529 -15416393.188 10 0 59641 40500.00000 0 18348319.380 959845.057 -17658143.341 10 0 59641 41400.00000 0 16229006.651 1868459.538 -19555916.376 10 0 59641 42300.00000 0 13999279.821 3034497.343 -21072689.674 10 0 59641 43200.00000 0 11726353.904 4450318.613 -22178876.487 10 0 59641 44100.00000 0 9476291.411 6095725.834 -22852909.043 10 0 59641 45000.00000 0 7311381.386 7938598.650 -23081662.560 10 0 59641 45900.00000 0 5287693.398 9936044.216 -22860711.838 10 0 59641 46800.00000 0 3452909.033 12036015.444 -22194415.438 10 0 59641 47700.00000 0 1844521.466 14179329.461 -21095826.043 10 0 59641 48600.00000 0 488477.835 16302001.650 -19586429.088 10 0 59641 49500.00000 0 -601679.856 18337797.260 -17695715.194 10 0 59641 50400.00000 0 -1425140.734 20220893.219 -15460595.295 10 0 59641 51300.00000 0 -1993606.234 21888538.313 -12924670.523 10 0 59641 52200.00000 0 -2330537.807 23283599.943 -10137371.730 10 0 59641 53100.00000 0 -2469905.094 24356890.557 -7152986.320 10 0 59641 54000.00000 0 -2454489.654 25069176.416 -4029592.131 10 0 59641 54900.00000 0 -2333817.955 25392784.871 -827919.945 10 0 59641 55800.00000 0 -2161812.785 25312743.515 2389832.370 10 0 59641 56700.00000 0 -1994263.815 24827404.458 5561210.435 10 0 59641 57600.00000 0 -1886225.271 23948528.800 8624714.733 10 0 59641 58500.00000 0 -1889451.253 22700829.020 11520989.055 10 0 59641 59400.00000 0 -2049977.137 21120989.728 14193963.224 10 0 59641 60300.00000 0 -2405948.942 19256208.683 16591928.565 10 0 59641 61200.00000 0 -2985791.649 17162319.769 18668526.130 10 0 59641 62100.00000 0 -3806793.053 14901576.435 20383629.835 10 0 59641 63000.00000 0 -4874162.230 12540187.659 21704108.795 10 0 59641 63900.00000 0 -6180601.894 10145708.261 22604455.548 10 0 59641 64800.00000 0 -7706412.751 7784390.803 23067269.403 10 0 59641 65700.00000 0 -9420126.158 5518607.470 23083586.670 10 0 59641 66600.00000 0 -11279639.730 3404447.310 22653052.152 10 0 59641 67500.00000 0 -13233810.062 1489586.724 21783928.881 10 0 59641 68400.00000 0 -15224438.060 -188479.997 20492945.709 10 0 59641 69300.00000 0 -17188566.055 -1603777.917 18804985.033 10 0 59641 70200.00000 0 -19060992.967 -2742701.855 16752615.578 10 0 59641 71100.00000 0 -20776904.385 -3604345.162 14375477.821 10 0 59641 72000.00000 0 -22274509.086 -4200293.307 11719532.428 10 0 59641 72900.00000 0 -23497572.703 -4553890.818 8836184.616 10 0 59641 73800.00000 0 -24397742.759 -4699012.042 5781299.950 10 0 59641 74700.00000 0 -24936567.263 -4678386.911 2614129.564 10 0 59641 75600.00000 0 -25087121.279 -4541551.960 -603835.107 10 0 59641 76500.00000 0 -24835171.785 -4342512.931 -3810056.219 10 0 59641 77400.00000 0 -24179830.193 -4137217.912 -6942168.559 10 0 59641 78300.00000 0 -23133663.311 -3980948.535 -9939199.544 10 0 59641 79200.00000 0 -21722256.407 -3925740.671 -12742765.574 10 0 59641 80100.00000 0 -19983245.261 -4017945.184 -15298220.282 10 0 59641 81000.00000 0 -17964856.807 -4296033.707 -17555731.187 10 0 59641 81900.00000 0 -15724018.908 -4788744.113 -19471262.645 10 0 59641 82800.00000 0 -13324118.355 -5513645.979 -21007444.845 10 0 59641 83700.00000 0 -10832501.108 -6476188.451 -22134311.166 10 0 59641 84600.00000 0 -8317819.767 -7669272.338 -22829888.859 10 0 59641 85500.00000 0 -5847339.761 -9073365.745 -23080631.203 10 0 59642 0.00000 0 -3484317.462 -10657159.306 -22881682.584 10 0 59642 900.00000 0 -1285558.811 -12378734.943 -22236971.174 10 0 59642 1800.00000 0 700736.392 -14187197.169 -21159127.988 10 0 59642 2700.00000 0 2436759.114 -16024701.222 -19669233.842 10 0 59642 3600.00000 0 3896427.678 -17828790.523 -17796399.756 10 0 59642 4500.00000 0 5066222.952 -19534945.678 -15577189.510 10 0 59642 5400.00000 0 5945488.700 -21079237.368 -13054896.254 10 0 59642 6300.00000 0 6546186.619 -22400971.276 -10278687.951 10 0 59642 7200.00000 0 6892118.639 -23445213.561 -7302639.175 10 0 59642 8100.00000 0 7017651.674 -24165090.696 -4184668.960 10 0 59642 9000.00000 0 6966000.934 -24523767.148 -985406.172 10 0 59642 9900.00000 0 6787146.377 -24496018.237 2232994.590 10 0 59642 10800.00000 0 6535472.067 -24069332.814 5408062.993 10 0 59642 11700.00000 0 6267229.570 -23244500.356 8478224.893 10 0 59642 12600.00000 0 6037933.373 -22035658.907 11383992.450 10 0 59642 13500.00000 0 5899798.716 -20469802.847 14069109.591 10 0 59642 14400.00000 0 5899329.874 -18585771.994 16481631.205 10 0 59642 15300.00000 0 6075160.130 -16432764.880 18574916.023 10 0 59642 16200.00000 0 6456233.744 -14068438.484 20308515.196 10 0 59642 17100.00000 0 7060405.716 -11556673.288 21648940.820 10 0 59642 18000.00000 0 7893517.537 -8965095.985 22570300.913 10 0 59642 18900.00000 0 8948987.475 -6362461.551 23054790.004 10 0 59642 19800.00000 0 10207932.708 -3816001.755 23093026.976 10 0 59642 20700.00000 0 11639818.795 -1388848.390 22684234.366 10 0 59642 21600.00000 0 13203610.507 862363.874 21836256.037 10 0 59642 22500.00000 0 14849377.448 2889617.390 20565412.653 10 0 59642 23400.00000 0 16520289.198 4655267.741 18896197.131 10 0 59642 24300.00000 0 18154918.555 6133364.570 16860814.841 10 0 59642 25200.00000 0 19689758.459 7310482.950 14498576.043 10 0 59642 26100.00000 0 21061848.814 8186031.016 11855150.752 10 0 59642 27000.00000 0 22211404.331 8772021.120 8981698.864 10 0 59642 27900.00000 0 23084333.794 9092313.903 5933890.903 10 0 59642 28800.00000 0 23634544.845 9181366.608 2770837.281 10 0 59642 29700.00000 0 23825936.816 9082537.951 -446053.940 10 0 59642 30600.00000 0 23633996.488 8846020.756 -3654269.013 10 0 59642 31500.00000 0 23046927.999 8526489.609 -6791406.779 10 0 59642 32400.00000 0 22066267.415 8180563.332 -9796399.105 10 0 59642 33300.00000 0 20706954.127 7864190.353 -12610708.906 10 0 59642 34200.00000 0 18996854.229 7630068.688 -15179481.272 10 0 59642 35100.00000 0 16975754.364 7525211.145 -17452624.167 10 0 59642 36000.00000 0 14693867.069 7588760.360 -19385796.500 10 0 59642 36900.00000 0 12209909.603 7850147.739 -20941283.232 10 0 59642 37800.00000 0 9588836.431 8327675.764 -22088739.639 10 0 59642 38700.00000 0 6899320.196 9027585.009 -22805789.613 10 0 59642 39600.00000 0 4211086.841 9943646.449 -23078465.899 10 0 59642 40500.00000 0 1592216.508 11057297.203 -22901483.554 10 0 59642 41400.00000 0 -893476.851 12338314.571 -22278341.304 10 0 59642 42300.00000 0 -3188877.572 13746000.208 -21221249.003 10 0 59642 43200.00000 0 -5245710.832 15230824.545 -19750882.961 10 0 59642 44100.00000 0 -7026306.783 16736461.951 -17895974.289 10 0 59642 45000.00000 0 -8504913.519 18202130.455 -15692738.892 10 0 59642 45900.00000 0 -9668505.459 19565136.960 -13184160.823 10 0 59642 46800.00000 0 -10517055.208 20763520.255 -10419143.672 10 0 59642 47700.00000 0 -11063259.639 21738679.949 -7451547.383 10 0 59642 48600.00000 0 -11331734.146 22437880.354 -4339130.098 10 0 59642 49500.00000 0 -11357711.465 22816523.716 -1142416.455 10 0 59642 50400.00000 0 -11185302.176 22840097.240 2076484.757 10 0 59642 51300.00000 0 -10865392.366 22485712.390 5255089.949 10 0 59642 52200.00000 0 -10453268.853 21743172.329 8331753.188 10 0 59642 53100.00000 0 -10006073.385 20615523.471 11246857.933 10 0 59642 54000.00000 0 -9580193.935 19119068.797 13943965.197 10 0 59642 54900.00000 0 -9228703.246 17282843.085 16370896.427 10 0 59642 55800.00000 0 -8998952.265 15147572.577 18480730.976 10 0 59642 56700.00000 0 -8930419.111 12764162.661 20232700.089 10 0 59642 57600.00000 0 -9052903.209 10191776.359 21592961.532 10 0 59642 58500.00000 0 -9385139.544 7495582.908 22535241.279 10 0 59642 59400.00000 0 -9933890.516 4744268.824 23041331.271 10 0 59642 60300.00000 0 -10693553.089 2007413.135 23101434.778 10 0 59642 61200.00000 0 -11646297.768 -647166.104 22714353.460 10 0 59642 62100.00000 0 -12762734.152 -3155986.046 21887512.893 10 0 59642 63000.00000 0 -14003076.313 -5462289.307 20636825.880 10 0 59642 63900.00000 0 -15318760.648 -7518152.760 18986395.593 10 0 59642 64800.00000 0 -16654450.207 -9286228.873 16968063.198 10 0 59642 65700.00000 0 -17950343.357 -10741048.248 14620807.300 10 0 59642 66600.00000 0 -19144691.591 -11869829.687 11990005.301 10 0 59642 67500.00000 0 -20176422.178 -12672764.246 9126569.337 10 0 59642 68400.00000 0 -20987756.324 -13162761.291 6085972.063 10 0 59642 69300.00000 0 -21526712.925 -13364666.795 2927180.035 10 0 59642 70200.00000 0 -21749392.155 -13313986.321 -288485.431 10 0 59642 71100.00000 0 -21621941.656 -13055166.076 -3498538.215 10 0 59642 72000.00000 0 -21122120.909 -12639504.281 -6640544.847 10 0 59642 72900.00000 0 -20240395.969 -12122781.170 -9653345.320 10 0 59642 73800.00000 0 -18980516.280 -11562708.224 -12478252.716 10 0 59642 74700.00000 0 -17359547.191 -11016305.293 -15060207.125 10 0 59642 75600.00000 0 -15407354.869 -10537317.651 -17348860.281 10 0 59642 76500.00000 0 -13165563.560 -10173783.579 -19299568.652 10 0 59642 77400.00000 0 -10686027.818 -9965856.726 -20874274.517 10 0 59642 78300.00000 0 -8028882.895 -9943976.745 -22042257.059 10 0 59642 79200.00000 0 -5260254.463 -10127466.738 -22780738.182 10 0 59642 80100.00000 0 -2449723.448 -10523617.828 -23075330.815 10 0 59642 81000.00000 0 332348.051 -11127300.212 -22920320.795 10 0 59642 81900.00000 0 3017517.957 -11921117.617 -22318776.837 10 0 59642 82800.00000 0 5541879.565 -12876098.699 -21282486.586 10 0 59642 83700.00000 0 7848482.025 -13952896.094 -19831720.339 10 0 59642 84600.00000 0 9889455.300 -15103442.110 -17994827.425 10 0 59642 85500.00000 0 11627751.485 -16272990.610 -15807673.668 99